天启-23星 (TIANQI-23)

导读

TIANQI 23(天启23)是中国研制的低轨物联网卫星,隶属于天启星座,于北京时间2023年9月5日,通过谷神星一号运载火箭在山东海阳黄海海域以"一箭四星"方式成功发射,卫星顺利进入预定轨道。它主要用于提供全球范围内的物联网数据采集、传输服务,支撑海洋、农林、工业等领域物联网应用,进一步完善了中国低轨物联网星座的组网覆盖能力,推动商业航天物联网产业发展。

Basic Information
目录编号:
57794
目录名称:
TIANQI 23
国际标识:
2023-135C
轨道中心:
EARTH
卫星名称:
天启-23星
卫星全名:
天启-23星 (TIANQI-23)
卫星状态:
在轨 (已飞行1105 天)
发射日期:
2023-09-05 UTC
国别 :
中国 (CN)
星等 :
--
This satellite is enrolled in the Space Conjunction Data Service (SCDS) and the current flight risk assessment level is: No High Risk
Orbit Information
数据来源 国际轨道数据 AOE轨道数据
星历时间 2026-09-14T07:29:38+0800
5小时前
查看轨道信息
2026-09-10T23:00:00+0800
3天前
查看轨道信息
半长轴 7193.078km 7193.087km
偏心率 0.0013133 0.0013157
轨道倾角 49.972° 49.972°
近地点辐角 210.777° 199.071°
升交点赤经 138.980° 153.092°
平近点角 149.237° 246.821°
近地点 805.494km 805.486km
远地点 824.388km 824.414km
周期 101.189分钟 101.189分钟
每日圈数 14.230843 14.230816
Detailed Information
平衡模式:
三轴稳定
覆盖范围:
全球
运营商:
北京国电高科科技有限公司
运营商所在国:
中国
制造商(研发单位):
北京国电高科科技有限公司
制造商所在国:
中国
使用方式:
暂无
Satellite Introduction
天启星座(Tianqi)由38颗卫星组网而成,提供全球短数据采集。致力于为全球物联网相关行业用户提供覆盖全球、准实时的物联网卫星数据服务,真正实现空中、海洋和地面的万物互联,构建天地一体化的卫星物联网生态系统,全面解决海上、空中以及陆地网络盲区(我国有70%以上陆地没有网络覆盖)的物联网数据通信问题。该卫星仍在工作。
2D Orbit Map
3D Orbit Map
Orbit Altitude Analysis Chart
Orbit Inclination Analysis Chart
Orbit Comprehensive Analysis Chart
View Comprehensive Chart
Conjunction Data List
Event ID Objects TCA Miss Dist (km) Collision Risk Probability Collision Risk Index (CRI) Action
CDM_260915-004604-129605-779422
2026-09-15T
00:46:11+0000
0.763 km
远距离
6.459537E-5 中风险 0.71
CDM_260914-124302-382705-779426
IRS B3 (23827)
2026-09-14T
12:43:43+0000
2.298 km
极远距离
1.987413E-6 低风险 0.41
CDM_260916-041505-454505-779421
2026-09-16T
04:15:41+0000
2.676 km
极远距离
1.471817E-6 低风险 0.38
Miss Distance Evolution Trend with All Objects Subscribe to Flight Safety Assessment
Collision Probability Evolution Trend with All Objects Subscribe to Flight Safety Assessment